Torna al catalogo

CZ-6A R/B

AttivoPO
NORAD 63922·ROCKET BODY·🇨🇳 China

Lanciato May 11, 2025 da Taiyuan Satellite Launch Center

Loading…

Prossimi Passaggi (prossime 24 ore)

TLE

AggiornatoSource: Space-Track

Epoca: Sep 14, 2026, 21:57 UTC

1 63922U 25096E   26257.91489610  .00000329  00000-0  55739-4 0  9991
2 63922  86.0180 130.0940 0068344 193.1082 166.8358 14.64229091 71837

Traccia CZ-6A R/B in tempo reale con AllMySat

Download on the App Store